Regional Weather Roundup
Issued by NWS

Home | Current Version | Previous Version | Graphics & Text | Print | Product List | Glossary On
Versions: 1 2 3 4 5 6 7 8 9 10 11 12 13 14 15 16 17 18 19 20 21 22 23 24 25 26 27 28 29 30 31 32 33 34 35 36 37 38 39 40 41 42 43 44 45 46 47 48 49 50
000
ASUS45 KBOU 030707
RWRCO

WEATHER ROUNDUP FOR COLORADO
NATIONAL WEATHER SERVICE DENVER/BOULDER CO
100 AM MDT THU SEP 03 2015

NOTE: "FAIR" INDICATES FEW OR NO CLOUDS BELOW 12000 FEET WITH NO
SIGNIFICANT WEATHER AND/OR OBSTRUCTIONS TO VISIBILITY.

COZ001>005-013-030-031-030800-
...NORTHWEST COLORADO...

CITY           SKY/WX    TMP DP  RH WIND       PRES   REMARKS
CRAIG          CLEAR     51  47  86 CALM      30.13S
HAYDEN         NOT AVBL
MEEKER         PTCLDY    56  48  74 E3        30.14S
MOUNT WERNER   NOT AVBL
STEAMBOAT SPGS CLEAR     53  45  74 CALM      30.18S
WALDEN         MOCLDY    46  37  71 E6        30.26F
$$

COZ006>008-011-030800-
...WEST CENTRAL VALLEYS...

CITY           SKY/WX    TMP DP  RH WIND       PRES   REMARKS
GRAND JUNCTION PTCLDY    71  50  47 E14       30.02F
MONTROSE       MOCLDY    66  49  54 SE9       30.15S
EAGLE          PTCLDY    59  48  67 E3        30.21S
RIFLE          MOCLDY    62  53  72 CALM      30.10S
DELTA          PTCLDY    67  50  54 E3        30.10S
NUCLA          PTCLDY    72  45  37 CALM      30.19S
$$

COZ017>023-064>068-030800-
...SOUTHWEST COLORADO...

CITY           SKY/WX    TMP DP  RH WIND       PRES   REMARKS
DURANGO        CLOUDY    60  48  64 NE6       30.25S
CORTEZ         CLOUDY    63  56  78 CALM      30.17F
PAGOSA SPRINGS CLOUDY    60  46  61 CALM      30.34F
TELLURIDE      MOCLDY    55  46  71 CALM      30.39F
WOLF CREEK PAS NOT AVBL
$$

COZ009-010-012-014-032>034-037-058>063-030800-
...CENTRAL COLORADO...

CITY           SKY/WX    TMP DP  RH WIND       PRES   REMARKS
ASPEN          PTCLDY    54  44  69 SW7       30.26F
BUENA VISTA    PTCLDY    51  41  69 W3        30.30S
COPPER MTN     PTCLDY    54  37  54 SW8G16    30.57F
BERTHOUD PASS  MOCLDY    43  32  65 W15G24    30.61F
COTTONWOOD PAS PTCLDY    59  37  44 SW5       30.42F
GUNNISON       PTCLDY    50  45  81 CALM      30.34S
KREMMLING      CLEAR     52  43  71 CALM      30.25S
LEADVILLE      PTCLDY    42  40  92 E3        30.42F
MONARCH PASS   PTCLDY    45  34  65 SW16      30.67S
SALIDA         PTCLDY    64  40  42 SE6       30.33F
SUNLIGHT       MOCLDY    50  45  81 CALM      30.50S
WILKERSON PASS PTCLDY    48  34  57 W8        30.53F
$$

COZ069>075-030800-
...SAN LUIS VALLEY/SANGRE DE CRISTO MOUNTAINS...

CITY           SKY/WX    TMP DP  RH WIND       PRES   REMARKS
ALAMOSA        CLOUDY    55  50  83 S12       30.30S
LA VETA PASS   CLOUDY    50  37  62 S13G23    30.43F
SAGUACHE       MOCLDY    50  43  76 W3        30.33F
$$

COZ035-036-038>040-030800-
...NORTHERN COLORADO FRONT RANGE...

CITY           SKY/WX    TMP DP  RH WIND       PRES   REMARKS
DENVER INTL AP PTCLDY    70  43  37 SW12      30.02F
DMNS CITY PARK   N/A     67  48  51 E9        30.03S
AURORA         PTCLDY    66  44  44 S7        30.05F
FRONT RANGE AP NOT AVBL
ERIE MUNI ARPT MOCLDY    65  44  46 CALM      30.01S
BOULDER MUN AP MOCLDY    68  39  34 CALM      30.01F
CENTENNIAL     MOCLDY    69  42  37 SW7       30.06F
BROOMFIELD     MOCLDY    70  41  35 CALM      30.05S
FORT COLLINS   PTCLDY    64  46  52 N6        30.01S
LONGMONT       PTCLDY    64  48  56 CALM      30.02S
$$

COZ041-046-047-076>085-087-088-030800-
...PIKES PEAK/PALMER DIVIDE AND SOUTHERN FOOTHILLS...

CITY           SKY/WX    TMP DP  RH WIND       PRES   REMARKS
COLO. SPRINGS  MOCLDY    66  46  48 N7        30.11F
A. F. ACADEMY  MOCLDY    59  44  56 N8        30.13F
ELLICOTT       MOCLDY   N/A N/A N/A N3        30.09S
FALCON         MOCLDY    61  44  53 MISG      30.17S
FORT CARSON    MOCLDY    67  47  48 NW9       30.07S
LIMON          PTCLDY    54  47  77 CALM      30.04S
MONUMENT HILL  MOCLDY    63  39  42 S8        30.17F
TRINIDAD       MOCLDY    71  47  42 W15       30.10S
$$

COZ042>045-048>051-090-091-030800-
...NORTHEAST COLORADO...

CITY           SKY/WX    TMP DP  RH WIND       PRES   REMARKS
GREELEY ARPT   PTCLDY    59  52  77 NW5       29.99S
AKRON          CLEAR     69  39  33 SW7       29.97F
BURLINGTON     MOCLDY    64  53  67 SW7       29.95F
WRAY           CLOUDY    61  52  71 W5        29.90S
STERLING       CLEAR     64  45  48 W3        29.93S
HOLYOKE        CLEAR     64  59  82 CALM      29.90F
FORT MORGAN    CLEAR     65  41  41 W7        29.97F
$$

COZ086-089-092>099-030800-
...SOUTHEAST COLORADO...

CITY           SKY/WX    TMP DP  RH WIND       PRES   REMARKS
PUEBLO         MOCLDY    71  45  39 NW7       29.98S
LA JUNTA       PTCLDY    77  47  34 SW15      29.96S
LAMAR          MOCLDY    70  52  52 NW5       29.90F
SPRINGFIELD      N/A     68  52  56 SW3       29.99S
$$



USA.gov is the U.S. government's official web portal to all federal, state and local government web resources and services.